This is the latest recevied weather packets stored in our database for station/object KM4CBK. If no packets are shown the sender has not sent any weather packets the latest 10 day(s).
| Time | Temp. | Humidity | Pressure | Rain* | Wind** | Luminosity | Snow |
|---|---|---|---|---|---|---|---|
| 1777907002 | 21.67° C | 62% | 1017 hPa | 0 mm | - | 618 W/m² | - |
| 1777906700 | 21.11° C | 63% | 1017.1 hPa | 0 mm | - | 701 W/m² | - |
| 1777906396 | 20.56° C | 67% | 1017 hPa | 0 mm | - | 637 W/m² | - |
| 1777906093 | 19.44° C | 67% | 1017.4 hPa | 0 mm | - | 577 W/m² | - |
| 1777905789 | 20° C | 67% | 1017.2 hPa | 0 mm | - | 214 W/m² | - |
| 1777905487 | 20° C | 68% | 1017.2 hPa | 0 mm | - | 257 W/m² | - |
| 1777905184 | 19.44° C | 68% | 1017.4 hPa | 0 mm | - | 245 W/m² | - |
| 1777904881 | 19.44° C | 69% | 1017.3 hPa | 0 mm | - | 349 W/m² | - |
| 1777904578 | 20° C | 69% | 1017.2 hPa | 0 mm | - | 309 W/m² | - |
| 1777904275 | 19.44° C | 69% | 1017.4 hPa | 0 mm | - | 585 W/m² | - |
| 1777903973 | 18.89° C | 71% | 1017.3 hPa | 0 mm | - | 453 W/m² | - |
| 1777903669 | 18.33° C | 74% | 1017.6 hPa | 0 mm | - | 399 W/m² | - |
| 1777903365 | 17.22° C | 74% | 1017.5 hPa | 0 mm | - | 149 W/m² | - |
| 1777903061 | 17.22° C | 77% | 1017.7 hPa | 0 mm | - | 75 W/m² | - |
| 1777902758 | 16.11° C | 79% | 1017.6 hPa | 0 mm | - | 299 W/m² | - |
| 1777902455 | 15.56° C | 82% | 1017.6 hPa | 0 mm | - | 51 W/m² | - |
| 1777902152 | 14.44° C | 83% | 1017.6 hPa | 0 mm | - | 40 W/m² | - |
| 1777901851 | 15° C | 82% | 1017.8 hPa | 0 mm | - | 37 W/m² | - |
| 1777901547 | 14.44° C | 84% | 1017.7 hPa | 0 mm | - | 39 W/m² | - |
| 1777901245 | 13.89° C | 85% | 1017.6 hPa | 0 mm | - | 37 W/m² | - |
| 1777900942 | 13.89° C | 87% | 1017.7 hPa | 0 mm | - | 38 W/m² | - |
| 1777900639 | 13.33° C | 88% | 1017.7 hPa | 0 mm | - | 38 W/m² | - |
| 1777900336 | 13.33° C | 89% | 1017.8 hPa | 0 mm | - | 38 W/m² | - |
| 1777900033 | 12.78° C | 90% | 1017.6 hPa | 0 mm | - | 38 W/m² | - |
| 1777899729 | 12.78° C | 91% | 1017.6 hPa | 0 mm | - | 34 W/m² | - |
* Rain latest hour (hover to see other rain measurements)
** Current wind speed in m/s (hover to see current wind gust speed)